Regional Weather Roundup
Issued by NWS

Home | Current Version | Previous Version | Graphics & Text | Print | Product List | Glossary On
Versions: 1 2 3 4 5 6 7 8 9 10 11 12 13 14 15 16 17 18 19 20 21 22 23 24 25 26 27 28 29 30 31 32 33 34 35 36 37 38 39 40 41 42 43 44 45 46 47 48 49 50
000
ASUS43 KFSD 120802
RWRSD

WEATHER ROUNDUP FOR SOUTH DAKOTA
NATIONAL WEATHER SERVICE SIOUX FALLS SD
200 AM CST TUE DEC 12 2017

NOTE: "FAIR" INDICATES FEW OR NO CLOUDS BELOW 12,000 FEET WITH NO
SIGNIFICANT WEATHER AND/OR OBSTRUCTIONS TO VISIBILITY.


SDZ001>005-009-010-012>017-120900-
NORTHWEST AND NORTH CENTRAL SOUTH DAKOTA

CITY           SKY/WX    TMP DP  RH WIND       PRES   REMARKS
BUFFALO          N/A     25  21  85 W8        30.22F WCI  16
FAITH            N/A     24  22  91 W9        30.29F WCI  14
MOBRIDGE       CLOUDY    21  18  88 CALM      30.26F
$$

SDZ012>016-024>037-041>051-057-063-072>074-120900-
SOUTHWEST AND SOUTH CENTRAL SOUTH DAKOTA

CITY           SKY/WX    TMP DP  RH WIND       PRES   REMARKS
RAPID CTY ARPT CLOUDY    26  18  71 SW3       30.32F
PIERRE         CLOUDY    32  31  96 W6        30.31F WCI  26
CUSTER         CLOUDY    32   0  25 W14       30.29F WCI  22
ELLSWORTH AFB  CLOUDY    22  15  74 SW3       30.31F
PHILIP         CLOUDY    22  20  92 W9        30.34F WCI  12
PINE RIDGE     CLOUDY    13  11  92 CALM      30.36F
SPEARFISH      FAIR      32   7  34 W9        30.30F WCI  24
WINNER         CLOUDY    35  30  82 W6        30.33F
$$

SDZ004>011-016>023-039-040-120900-
NORTHEAST SOUTH DAKOTA

CITY           SKY/WX    TMP DP  RH WIND       PRES   REMARKS
ABERDEEN       CLOUDY    15  14  95 SW6       30.32F WCI   6
WATERTOWN      CLEAR      9   7  92 W5        30.27F WCI   1
BROOKINGS      CLOUDY    11   8  88 W7        30.30F WCI   0
SISSETON         N/A     10   6  84 W3        30.30F
$$

SDZ017-020-022-023-036>040-048>070-120900-
SOUTHEAST SOUTH DAKOTA

CITY           SKY/WX    TMP DP  RH WIND       PRES   REMARKS
SIOUX FALLS    CLEAR     14  12  92 NW7       30.32F WCI   4
HURON          CLOUDY    20  17  88 SW3       30.34F
CHAMBERLAIN    CLOUDY    20  20 100 CALM      30.33F
MITCHELL       CLOUDY    17  14  88 W3        30.35F
YANKTON        CLEAR     16  13  88 W6        30.36F WCI   7
$$

ABBREVIATIONS USED IN REMARKS
   TC - TEMPERATURE IN CELSIUS
  WCI - WIND CHILL INDEX
   HX - HEAT INDEX
  VSB - VISIBILITY





USA.gov is the U.S. government's official web portal to all federal, state and local government web resources and services.